Location: Prague
(50.0830°N, 14.4670°E)
Time: 06:52:42
(UTC+02:00)

Envisat - Pass Details

Date: 05 October 2021
Orbit: 764 x 766 km, 98.2° (Epoch: 26 October)

Event Time Altitude Azimuth Distance (km) Brightness Sun altitude
Rises 04:44:26 0° 29° (NNE) 3,242 7.0 -23.5°
Reaches altitude 10° 04:47:59 10° 55° (NE) 2,309 6.5 -23.0°
Maximum altitude 04:50:31 14° 86° (E) 2,053 6.1 -22.6°
Drops below altitude 10° 04:53:04 10° 116° (ESE) 2,300 6.0 -22.2°
Sets 04:56:35 0° 142° (SE) 3,219 6.5 -21.7°
